[Date Prev][Date Next][Thread Prev][Thread Next] - [Date Index][Thread Index][Author Index]
2 Line ISS Keps 1-16
- Subject: [sarex] 2 Line ISS Keps 1-16
- From: "Dave Larsen PhD" <doc@xxxxxxxxxxx>
- Date: Mon, 16 Jan 2006 04:11:30 -0800
ISS
1 25544U 98067A 06016.15721588 .00010383 00000-0 75316-4 0 1612
2 25544 051.6453 249.2046 0010651 158.8086 341.4837 15.74039619409202
----
Via the sarex mailing list at AMSAT.ORG courtesy of AMSAT-NA.
To unsubscribe, send "unsubscribe sarex" to Majordomo@amsat.org
AMSAT Home